Regional Weather Roundup
Issued by NWS

Home | Current Version | Previous Version | Text Only | Print | Product List | Glossary Off
Versions: 1 2 3 4 5 6 7 8 9 10 11 12 13 14 15 16 17 18 19 20 21 22 23 24 25 26 27 28 29 30 31 32 33 34 35 36 37 38 39 40 41 42 43 44 45 46 47 48 49 50

809
ASUS43 KLOT 270609
RWRIL

ILLINOIS REGIONAL WEATHER ROUNDUP
NATIONAL WEATHER SERVICE CHICAGO/ROMEOVILLE IL
100 AM CDT SAT MAY 27 2017

NOTE: "FAIR" INDICATES FEW OR NO CLOUDS BELOW 12,000 FEET WITH NO
SIGNIFICANT WEATHER AND/OR OBSTRUCTIONS TO VISIBILITY.

* THESE STATIONS ARE NOT UNDER NWS QUALITY CONTROL. THEY ALSO MAY NOT
  REPORT WEATHER SUCH AS PRECIPITATION OR FOG.

ILZ001-002-007-009-015-016-024-270700-
NORTHWEST ILLINOIS

CITY           SKY/WX    TMP DP  RH WIND       PRES   REMARKS
MOLINE         CLOUDY    61  57  87 N5        29.88R
6HR MIN TEMP:  61; 6HR MAX TEMP:  67;

STERLING*      CLEAR     55  55 100 CALM      29.88S
SAVANNA*         N/A     53  53  99 CALM      29.89R FOG
$$

ILZ003-004-008-010-011-017-018-270700-
NORTH CENTRAL ILLINOIS

CITY           SKY/WX    TMP DP  RH WIND       PRES   REMARKS
ROCKFORD       CLEAR     54  53  97 N5        29.90R FOG
6HR MIN TEMP:  54; 6HR MAX TEMP:  61;

FREEPORT*      FOG       53  52  99 CALM      29.90S VSB 1
ROCHELLE*      PTCLDY    54  53  99 CALM      29.88R FOG
DE KALB*       PTCLDY    54  53  97 NE6       29.87S FOG
PERU*          CLEAR     55  53  95 N5        29.87R FOG
$$

ILZ005-006-012>014-019>023-270700-
NORTHEAST ILLINOIS

CITY           SKY/WX    TMP DP  RH WIND       PRES   REMARKS
CHICAGO-OHARE  CLOUDY    57  53  86 NE8       29.86R
6HR MIN TEMP:  55; 6HR MAX TEMP:  57; 6HR PCP:  0.08;

CHICAGO-MIDWAY MOCLDY    57  55  93 NE6       29.85S
6HR MIN TEMP:  57; 6HR MAX TEMP:  59; 6HR PCP: TRACE;

AURORA         CLOUDY    57  56  96 NE6       29.87R FOG
6HR MIN TEMP:  57; 6HR MAX TEMP:  59;

LANSING*       MOCLDY    56  55  99 N3        29.85S
JOLIET*        CLOUDY    60  58  93 CALM      29.85S
WAUKEGAN       CLEAR     50  50 100 N3        29.87S FOG
6HR MIN TEMP:  50; 6HR MAX TEMP:  56; 6HR PCP:  0.02;

DUPAGE AIRPORT CLOUDY    56  56 100 NE6       29.86S
6HR MIN TEMP:  56; 6HR MAX TEMP:  57; 6HR PCP:  0.01;

KANKAKEE*      CLOUDY    59  58  97 CALM      29.84S FOG
WHEELING       CLOUDY    55  54  96 CALM      29.88S
6HR MIN TEMP:  54; 6HR MAX TEMP:  56; 6HR PCP:  0.19;

MORRIS*        CLOUDY    58  56  94 CALM      29.84S FOG
ROMEOVILLE*    CLOUDY    56  56 100 NE6       29.85S
$$

LMZ740>746-270700-
SOUTHERN LAKE MICHIGAN

STATION/POSITION SKY/WX   TEMP    WIND        PRES    VSBY  WAVE
                          AIR SEA DIR/SP/G                  HT/PER
                          (F)     (DEG/KT/KT) (MB)    (MI)  (FT/S)
SOUTHERN BUOY              47 46   40/  2/  4 1011.7          0
WILMETTE HARBOR            49 51                N/A           1/ 3
HARRISON CRIB              53     340/  8/ 10   N/A
BURNHAM HARBOR             54     360/  8       N/A
CALUMET HARBOR             55      20/  5/  8 1010.5S
BURNS HARBOR               56      70/  6/  7 1011.2R
MICHIGAN CITY              58      20/  6/  6   N/A
MICHIGAN CITY 6N           53 52   30/  8/ 10   N/A           1/ 3
ST. JOSEPH                 59 57   80/  4/  6 1011.1          1
$$

ILZ025>027-034>036-040-047-049-050-058-095>099-270700-
WEST-CENTRAL ILLINOIS

CITY           SKY/WX    TMP DP  RH WIND       PRES   REMARKS
QUINCY         CLEAR     61  59  93 NE6       29.86S
GALESBURG*     CLEAR     58  58 100 N7        29.86S FOG
MACOMB*        CLEAR     60  59  98 N3        29.89R FOG
JACKSONVILLE*  CLEAR     64  62  94 NW5       29.85S
PITTSFIELD*    CLEAR     65  64  94 CALM      29.87S
$$

ILZ028>032-037-038-041>044-048-051>054-059>061-270700-
CENTRAL ILLINOIS

CITY           SKY/WX    TMP DP  RH WIND       PRES   REMARKS
PONTIAC        CLOUDY    60  60  99 N8        29.85S FOG
BLOOMINGTON    FOG       63  63 100 NW9       29.85S VSB 3/4
DECATUR        CLOUDY    69  64  84 N5        29.84R
PEORIA         PTCLDY    61  60  97 NW3       29.86R FOG
6HR MIN TEMP:  60; 6HR MAX TEMP:  73;

LACON*         CLOUDY    60  60  99 N3        29.86R FOG
LINCOLN*       CLEAR     66  65  99 CALM      29.84S
SPRINGFIELD    CLEAR     68  66  93 N8        29.84S
6HR MIN TEMP:  68; 6HR MAX TEMP:  81;

TAYLORVILLE    MOCLDY    68  66  94 NW5       29.84S
6HR MIN TEMP:  68; 6HR MAX TEMP:  75;

$$

ILZ033-039-045-046-055>057-062-063-270700-
EAST-CENTRAL ILLINOIS

CITY           SKY/WX    TMP DP  RH WIND       PRES   REMARKS
CHAMPAIGN      CLOUDY    67  65  93 W7        29.83R
RANTOUL*       MOCLDY    66  65  97 N6        29.82S
MATTOON        CLEAR     69  67  93 SW8       29.82S
PARIS*         MOCLDY    68  66  93 SW7       29.83R
$$

ILZ079-100>102-270700-
SOUTHWEST ILLINOIS

CITY           SKY/WX    TMP DP  RH WIND       PRES   REMARKS
ALTON          MOCLDY    70  67  91 CALM      29.85S
BELLEVILLE     CLEAR     68  66  92 W3        29.85S
CAHOKIA*       CLEAR     72  67  84 SW6       29.84S
SPARTA*        PTCLDY    70  67  89 SW5       29.86S
$$

ILZ064>066-069>071-074>076-080>082-084>086-088>090-092>094-270700-
SOUTH-CENTRAL ILLINOIS

CITY           SKY/WX    TMP DP  RH WIND       PRES   REMARKS
CARBONDALE     MOCLDY    71  69  93 W5        29.86S
6HR MIN TEMP:  70; 6HR MAX TEMP:  73;

CAIRO*         CLOUDY    73  69  88 CALM      29.87S
EFFINGHAM*     PTCLDY    69  68  95 SW6       29.84F
MARION         MOCLDY    72  70  94 SW3       29.87S
MT. VERNON       N/A     67  66  97 S3        29.85F
CENTRALIA*     CLEAR     69  67  94 S5        29.83F
SALEM*         PTCLDY    69  66  89 SW5       29.84F
METROPOLIS*    CLOUDY    71  69  92 CALM      29.88S
$$

ILZ067-068-072-073-078-083-087-091-270700-
SOUTHEAST ILLINOIS

CITY           SKY/WX    TMP DP  RH WIND       PRES   REMARKS
LAWRENCEVILLE  PTCLDY    70  67  90 SW7       29.84S
FLORA*         PTCLDY    69  67  91 SW5       29.84F
FAIRFIELD*     PTCLDY    69  68  96 CALM      29.84S
HARRISBURG*    PTCLDY    70  68  93 SW6       29.86F
ROBINSON*      CLEAR     68  66  91 SW5       29.84S
CARMI*         MOCLDY    70  68  93 SW6       29.85F
$$

ABBREVIATIONS USED IN REMARKS
   TC - TEMPERATURE IN CELSIUS
  WCI - WIND CHILL INDEX
   HX - HEAT INDEX
  VSB - VISIBILITY
$$





USA.gov is the U.S. government's official web portal to all federal, state and local government web resources and services.